| time (UTC) | temp F | wind direction | speed MPH | gust MPH | rain 1hr in | rain 24hr in | rain mn in | humidity % | barometer mb |
| 20260505184010 | 59 | 88 | 0.0 | 3.0 | 0.00 | 0.00 | 0.00 | 78 | 1016.6 |
| 20260505183011 | 59 | 3 | 2.0 | 3.0 | 0.00 | 0.00 | 0.00 | 78 | 1016.6 |
| 20260505182009 | 59 | 176 | 0.0 | 2.0 | 0.00 | 0.00 | 0.00 | 78 | 1016.5 |
| 20260505181010 | 58 | 110 | 0.0 | 1.0 | 0.00 | 0.00 | 0.00 | 78 | 1016.4 |
| 20260505180012 | 58 | 110 | 0.0 | 0.0 | 0.00 | 0.00 | 0.00 | 79 | 1016.4 |
| 20260505175010 | 58 | 110 | 0.0 | 2.0 | 0.00 | 0.00 | 0.00 | 80 | 1016.4 |
| 20260505174009 | 58 | 111 | 1.0 | 1.0 | 0.00 | 0.00 | 0.00 | 79 | 1016.4 |
| 20260505173010 | 58 | 111 | 0.0 | 3.0 | 0.00 | 0.00 | 0.00 | 81 | 1016.4 |
| 20260505172009 | 58 | 122 | 0.0 | 2.0 | 0.00 | 0.00 | 0.00 | 80 | 1016.4 |
| 20260505171009 | 58 | 126 | 0.0 | 2.0 | 0.00 | 0.00 | 0.00 | 81 | 1016.3 |
| 20260505170009 | 57 | 290 | 0.0 | 0.0 | 0.00 | 0.00 | 0.00 | 80 | 1016.3 |
| 20260505165008 | 57 | 290 | 0.0 | 1.0 | 0.00 | 0.00 | 0.00 | 81 | 1016.3 |
| 20260505164008 | 57 | 288 | 0.0 | 2.0 | 0.00 | 0.00 | 0.00 | 81 | 1016.3 |
| 20260505163011 | 57 | 288 | 0.0 | 0.0 | 0.00 | 0.00 | 0.00 | 80 | 1016.3 |
| 20260505162010 | 57 | 290 | 0.0 | 2.0 | 0.00 | 0.00 | 0.00 | 81 | 1016.3 |
| 20260505161008 | 57 | 288 | 1.0 | 3.0 | 0.00 | 0.00 | 0.00 | 82 | 1016.3 |
| 20260505153014 | 56 | 259 | 0.0 | 3.0 | 0.00 | 0.00 | 0.00 | 83 | 1016.3 |
| 20260505152009 | 56 | 222 | 0.0 | 3.0 | 0.00 | 0.00 | 0.00 | 83 | 1016.2 |
| 20260505151010 | 56 | 211 | 1.0 | 2.0 | 0.00 | 0.00 | 0.00 | 83 | 1016.2 |
| 20260505125009 | 54 | 235 | 1.0 | 4.0 | 0.00 | 0.00 | 0.00 | 86 | 1015.5 |
| 20260505124009 | 54 | 222 | 2.0 | 3.0 | 0.00 | 0.00 | 0.00 | 86 | 1015.3 |
| 20260505123010 | 54 | 253 | 0.0 | 3.0 | 0.00 | 0.00 | 0.00 | 86 | 1015.3 |
| 20260505122008 | 54 | 255 | 1.0 | 4.0 | 0.00 | 0.00 | 0.00 | 87 | 1015.1 |
| 20260505121009 | 54 | 214 | 2.0 | 3.0 | 0.00 | 0.00 | 0.00 | 87 | 1015.0 |
| 20260505120012 | 54 | 286 | 0.0 | 3.0 | 0.00 | 0.00 | 0.00 | 87 | 1015.2 |
| 20260505115010 | 54 | 227 | 3.0 | 4.0 | 0.00 | 0.00 | 0.00 | 87 | 1015.1 |
| 20260505114009 | 54 | 220 | 0.0 | 3.0 | 0.00 | 0.00 | 0.00 | 87 | 1015.1 |
| 20260505113010 | 54 | 268 | 1.0 | 3.0 | 0.00 | 0.00 | 0.00 | 87 | 1015.2 |
| 20260505112009 | 54 | 220 | 2.0 | 3.0 | 0.00 | 0.00 | 0.00 | 88 | 1015.2 |
| 20260505111009 | 54 | 221 | 0.0 | 3.0 | 0.00 | 0.00 | 0.00 | 88 | 1015.2 |
| 20260505102010 | 54 | 213 | 0.0 | 4.0 | 0.00 | 0.00 | 0.00 | 87 | 1014.9 |
| 20260505101010 | 54 | 273 | 3.0 | 5.0 | 0.00 | 0.00 | 0.00 | 87 | 1014.9 |
| 20260505100012 | 54 | 222 | 1.0 | 3.0 | 0.00 | 0.00 | 0.00 | 87 | 1014.9 |
| 20260505095009 | 54 | 215 | 2.0 | 5.0 | 0.00 | 0.00 | 0.00 | 87 | 1014.9 |
| 20260505094009 | 54 | 181 | 3.0 | 4.0 | 0.00 | 0.00 | 0.00 | 87 | 1014.9 |
| 20260505093009 | 55 | 251 | 2.0 | 6.0 | 0.00 | 0.00 | 0.00 | 87 | 1014.8 |
| 20260505092009 | 55 | 225 | 3.0 | 5.0 | 0.00 | 0.00 | 0.00 | 87 | 1014.8 |
| 20260505091008 | 55 | 210 | 2.0 | 5.0 | 0.00 | 0.00 | 0.00 | 86 | 1014.8 |
| 20260505090009 | 55 | 208 | 0.0 | 6.0 | 0.00 | 0.00 | 0.00 | 86 | 1014.7 |
| 20260505085008 | 55 | 209 | 0.0 | 3.0 | 0.00 | 0.00 | 0.00 | 86 | 1014.8 |
| 20260505084010 | 55 | 223 | 0.0 | 7.0 | 0.00 | 0.00 | 0.00 | 86 | 1014.8 |
| 20260505083011 | 55 | 210 | 0.0 | 5.0 | 0.00 | 0.00 | 0.00 | 86 | 1014.9 |
| 20260505082009 | 55 | 226 | 2.0 | 6.0 | 0.00 | 0.00 | 0.00 | 86 | 1014.9 |
| 20260505081009 | 55 | 229 | 0.0 | 3.0 | 0.00 | 0.00 | 0.00 | 86 | 1014.9 |
| 20260505080009 | 55 | 213 | 2.0 | 5.0 | 0.00 | 0.00 | 0.00 | 86 | 1014.9 |
| 20260505075009 | 55 | 240 | 2.0 | 9.0 | 0.00 | 0.00 | 0.00 | 86 | 1014.9 |
| 20260505074008 | 55 | 248 | 3.0 | 7.0 | 0.00 | 0.00 | 0.00 | 85 | 1014.9 |
| 20260505073010 | 55 | 217 | 1.0 | 6.0 | 0.00 | 0.00 | 0.00 | 85 | 1015.0 |
| 20260505072008 | 55 | 238 | 1.0 | 6.0 | 0.00 | 0.00 | 0.00 | 85 | 1014.9 |
| 20260505071009 | 55 | 252 | 0.0 | 6.0 | 0.00 | 0.00 | 0.00 | 85 | 1014.8 |
| 20260505070009 | 55 | 203 | 0.0 | 6.0 | 0.00 | 0.00 | 0.00 | 85 | 1014.8 |
| 20260505065008 | 55 | 236 | 3.0 | 8.0 | 0.00 | 0.00 | 0.00 | 85 | 1014.8 |
| 20260505064008 | 55 | 231 | 3.0 | 5.0 | 0.00 | 0.00 | 0.00 | 85 | 1014.8 |
| 20260505063011 | 56 | 238 | 3.0 | 6.0 | 0.00 | 0.00 | 0.00 | 85 | 1014.7 |
| 20260505062009 | 56 | 233 | 5.0 | 8.0 | 0.00 | 0.00 | 0.00 | 85 | 1014.7 |
| 20260505061009 | 56 | 268 | 1.0 | 8.0 | 0.00 | 0.00 | 0.00 | 84 | 1014.7 |
| 20260505060009 | 56 | 231 | 0.0 | 6.0 | 0.00 | 0.00 | 0.00 | 84 | 1014.7 |
| 20260505055008 | 56 | 232 | 3.0 | 7.0 | 0.00 | 0.00 | 0.00 | 84 | 1014.7 |
| 20260505054008 | 56 | 236 | 1.0 | 8.0 | 0.00 | 0.00 | 0.00 | 84 | 1014.6 |
| 20260505053011 | 56 | 191 | 2.0 | 9.0 | 0.00 | 0.00 | 0.00 | 84 | 1014.5 |
| 20260505052010 | 56 | 205 | 2.0 | 8.0 | 0.00 | 0.00 | 0.00 | 83 | 1014.4 |
| 20260505051009 | 56 | 178 | 2.0 | 10.0 | 0.00 | 0.00 | 0.00 | 84 | 1014.5 |
| 20260505041009 | 55 | 225 | 4.0 | 6.0 | 0.00 | 0.00 | 0.00 | 85 | 1013.8 |
| 20260505040011 | 56 | 210 | 1.0 | 5.0 | 0.00 | 0.00 | 0.00 | 84 | 1013.6 |
| 20260505035009 | 56 | 213 | 0.0 | 6.0 | 0.00 | 0.00 | 0.00 | 84 | 1013.6 |
| 20260505034009 | 56 | 172 | 2.0 | 7.0 | 0.00 | 0.00 | 0.00 | 83 | 1013.5 |
| 20260505033009 | 57 | 215 | 3.0 | 8.0 | 0.00 | 0.00 | 0.00 | 82 | 1013.3 |
| 20260505032008 | 57 | 230 | 7.0 | 11.0 | 0.00 | 0.00 | 0.00 | 81 | 1013.2 |
| 20260505031009 | 58 | 208 | 3.0 | 10.0 | 0.00 | 0.00 | 0.00 | 81 | 1013.1 |
| 20260505030009 | 58 | 209 | 4.0 | 10.0 | 0.00 | 0.00 | 0.00 | 80 | 1012.8 |
| 20260505025009 | 59 | 244 | 2.0 | 10.0 | 0.00 | 0.00 | 0.00 | 79 | 1012.6 |
| 20260505024008 | 60 | 244 | 10.0 | 13.0 | 0.00 | 0.00 | 0.00 | 78 | 1012.4 |
| 20260505023009 | 60 | 252 | 4.0 | 10.0 | 0.00 | 0.00 | 0.00 | 77 | 1012.4 |
| 20260505022011 | 61 | 211 | 9.0 | 12.0 | 0.00 | 0.00 | 0.00 | 76 | 1012.3 |
| 20260505021013 | 62 | 195 | 4.0 | 13.0 | 0.00 | 0.00 | 0.00 | 74 | 1012.2 |
| 20260505020010 | 63 | 282 | 7.0 | 12.0 | 0.00 | 0.00 | 0.00 | 73 | 1012.3 |
| 20260505015009 | 64 | 191 | 3.0 | 14.0 | 0.00 | 0.00 | 0.00 | 72 | 1012.3 |
| 20260505014011 | 64 | 261 | 6.0 | 13.0 | 0.00 | 0.00 | 0.00 | 71 | 1012.2 |
| 20260505013009 | 65 | 294 | 6.0 | 10.0 | 0.00 | 0.00 | 0.00 | 70 | 1012.3 |
| 20260505012009 | 66 | 208 | 3.0 | 10.0 | 0.00 | 0.00 | 0.00 | 70 | 1012.3 |
| 20260505011008 | 65 | 222 | 6.0 | 14.0 | 0.00 | 0.00 | 0.00 | 70 | 1012.3 |
| 20260505010009 | 66 | 249 | 6.0 | 13.0 | 0.00 | 0.00 | 0.00 | 70 | 1012.3 |
| 20260505005008 | 66 | 273 | 7.0 | 12.0 | 0.00 | 0.00 | 0.00 | 70 | 1012.4 |
| 20260505004009 | 67 | 258 | 9.0 | 13.0 | 0.00 | 0.00 | 0.00 | 68 | 1012.4 |
| 20260505003009 | 67 | 232 | 6.0 | 13.0 | 0.00 | 0.00 | 0.00 | 68 | 1012.2 |
| 20260505002008 | 68 | 290 | 7.0 | 12.0 | 0.00 | 0.00 | 0.00 | 68 | 1012.3 |
| 20260505001008 | 68 | 197 | 3.0 | 10.0 | 0.00 | 0.00 | 0.00 | 67 | 1012.3 |
| 20260505000008 | 68 | 263 | 7.0 | 10.0 | 0.00 | 0.00 | 0.00 | 69 | 1012.3 |
| 20260504235010 | 68 | 230 | 7.0 | 11.0 | 0.00 | 0.00 | 0.00 | 68 | 1012.3 |
| 20260504234010 | 68 | 215 | 3.0 | 10.0 | 0.00 | 0.00 | 0.00 | 67 | 1012.2 |
| 20260504233011 | 68 | 212 | 8.0 | 9.0 | 0.00 | 0.00 | 0.00 | 70 | 1012.4 |
| 20260504232009 | 68 | 244 | 7.0 | 12.0 | 0.00 | 0.00 | 0.00 | 68 | 1012.4 |
| 20260504231009 | 68 | 242 | 3.0 | 11.0 | 0.00 | 0.00 | 0.00 | 67 | 1012.6 |
| 20260504230009 | 69 | 223 | 10.0 | 10.0 | 0.00 | 0.00 | 0.00 | 68 | 1012.7 |
| 20260504225009 | 69 | 248 | 5.0 | 10.0 | 0.00 | 0.00 | 0.00 | 69 | 1012.7 |
| 20260504224008 | 69 | 236 | 8.0 | 12.0 | 0.00 | 0.00 | 0.00 | 68 | 1012.9 |
| 20260504223009 | 69 | 259 | 3.0 | 10.0 | 0.00 | 0.00 | 0.00 | 67 | 1012.9 |
| 20260504222044 | 69 | 249 | 6.0 | 10.0 | 0.00 | 0.00 | 0.00 | 68 | 1013.1 |
| 20260504222008 | 69 | 249 | 6.0 | 10.0 | 0.00 | 0.00 | 0.00 | 68 | 1013.1 |
| 20260504221009 | 69 | 232 | 3.0 | 10.0 | 0.00 | 0.00 | 0.00 | 68 | 1013.2 |
| 20260504220009 | 68 | 200 | 3.0 | 11.0 | 0.00 | 0.00 | 0.00 | 70 | 1013.3 |
| 20260504215008 | 68 | 296 | 5.0 | 10.0 | 0.00 | 0.00 | 0.00 | 69 | 1013.3 |
| 20260504214008 | 67 | 195 | 4.0 | 6.0 | 0.00 | 0.00 | 0.00 | 71 | 1013.3 |
| 20260504213012 | 66 | 177 | 3.0 | 5.0 | 0.00 | 0.00 | 0.00 | 68 | 1013.5 |
| 20260504212010 | 67 | 240 | 4.0 | 9.0 | 0.00 | 0.00 | 0.00 | 68 | 1013.5 |
| 20260504211012 | 67 | 231 | 6.0 | 8.0 | 0.00 | 0.00 | 0.00 | 69 | 1013.6 |
| 20260504210009 | 66 | 219 | 2.0 | 6.0 | 0.00 | 0.00 | 0.00 | 70 | 1013.7 |
| 20260504205009 | 64 | 201 | 1.0 | 7.0 | 0.00 | 0.00 | 0.00 | 74 | 1013.8 |
| 20260504204010 | 63 | 234 | 2.0 | 5.0 | 0.00 | 0.00 | 0.00 | 72 | 1013.9 |
| 20260504203013 | 63 | 231 | 3.0 | 6.0 | 0.00 | 0.00 | 0.00 | 72 | 1013.9 |
| 20260504202009 | 63 | 198 | 1.0 | 5.0 | 0.00 | 0.00 | 0.00 | 74 | 1013.9 |
| 20260504201009 | 62 | 179 | 3.0 | 5.0 | 0.00 | 0.00 | 0.00 | 74 | 1013.9 |
| 20260504200012 | 62 | 184 | 4.0 | 5.0 | 0.00 | 0.00 | 0.00 | 74 | 1014.0 |
| 20260504195009 | 62 | 241 | 3.0 | 7.0 | 0.00 | 0.00 | 0.00 | 76 | 1014.0 |
| 20260504194009 | 61 | 198 | 3.0 | 7.0 | 0.00 | 0.00 | 0.00 | 75 | 1014.0 |
| 20260504193009 | 61 | 249 | 3.0 | 8.0 | 0.00 | 0.00 | 0.00 | 76 | 1014.0 |
| 20260504192012 | 61 | 233 | 3.0 | 7.0 | 0.00 | 0.00 | 0.00 | 77 | 1014.0 |
| 20260504191008 | 60 | 246 | 5.0 | 7.0 | 0.00 | 0.00 | 0.00 | 77 | 1014.2 |
| 20260504190009 | 60 | 241 | 3.0 | 7.0 | 0.00 | 0.00 | 0.00 | 79 | 1014.2 |
| 20260504185009 | 59 | 199 | 2.0 | 6.0 | 0.00 | 0.00 | 0.00 | 79 | 1014.5 |